AirNav   ProFlight Series 2 Aviation Headset
 
 1105 users online  

Y77 Bayfield County Airport
Iron River, Wisconsin, USA

GOING TO IRON RIVER?


FAA INFORMATION EFFECTIVE 18 JUNE 2020

Location

FAA Identifier: Y77
Lat/Long: 46-34-34.7870N 091-27-30.6800W
46-34.579783N 091-27.511333W
46.5763297,-91.4585222
(estimated)
Elevation: 1143 ft. / 348 m (estimated)
Variation: 01E (1985)
From city: 2 miles NW of IRON RIVER, WI
Time zone: UTC -5 (UTC -6 during Standard Time)
Zip code: 54847

Airport Operations

Airport use: Open to the public
Activation date: 10/1946
Control tower: no
ARTCC: MINNEAPOLIS CENTER
FSS: GREEN BAY FLIGHT SERVICE STATION
NOTAMs facility: GRB (NOTAM-D service available)
Attendance: UNATTND
Wind indicator: lighted
Segmented circle: no
Lights: ACTVT LIRL RY 08/26 - CTAF.

Airport Communications

CTAF: 122.9

Nearby radio navigation aids

VOR radial/distance  VOR name  Freq  Var
DLHr109/33.5DULUTH VORTAC112.6005E

Airport Services

Parking: tiedowns
Airframe service: NONE
Powerplant service: NONE
Bottled oxygen: NONE
Bulk oxygen: NONE

Runway Information

Runway 8/26

Dimensions: 3000 x 130 ft. / 914 x 40 m
Surface: turf, in fair condition
Runway edge lights: non-standard
NSTD LIRL - 1 LGT EA SIDE OF THLD.
Runway edge markings: 08/26 THLDS MKD WITH RED & WHITE A-FRAMES.
RUNWAY 8  RUNWAY 26
Latitude: 46-34.609833N46-34.663000N
Longitude: 091-27.722833W091-27.011333W
Elevation: 1140.0 ft.1140.0 ft.
Traffic pattern: leftleft
Visual slope indicator: 2-box VASI on left
Obstructions: 33 ft. trees, 600 ft. from runway, 18:1 slope to clear15 ft. road, 383 ft. from runway, 25:1 slope to clear

Airport Ownership and Management from official FAA records

Ownership: Privately-owned
Owner: JOHN PEARSON
PO BOX 1278
HAMILTON, MT 59840
Phone (406) 381-7290
Manager: PAT MCDONOUGH
66615 WILLS RD
BRULE, WI 54820
Phone (715) 372-4848

Airport Operational Statistics

Aircraft based on the field: 3
Single engine airplanes: 3
    
Aircraft operations: avg 44/week *
56% transient general aviation
43% local general aviation
<1% air taxi
* for 12-month period ending 06 June 2017

Additional Remarks

CONFIRM WINTER CONDS AND SNOW REMOVAL WITH AMGR 715-372-4848.
OCCASIONAL WILD GAME ON & INVOF ARPT.
FOR CD CTC MINNEAPOLIS ARTCC AT 651-463-5588.

Instrument Procedures

There are no published instrument procedures at Y77.

Some nearby airports with instrument procedures:

KOLG - Solon Springs Municipal Airport (22 nm SW)
KASX - John F Kennedy Memorial Airport (22 nm E)
3CU - Cable Union Airport (24 nm S)
KSUW - Richard I Bong Airport (27 nm W)
KTWM - Richard B Helgeson Airport (31 nm N)
 
Loc | Ops | Rwys | IFR | FBO | Links
Com | Nav | Svcs | Stats | Notes
Area around Y77 (Bayfield County Airport)
 
Road maps at: MapQuest Bing Google
 
Aerial photo
No photo
 
Sectional chart

 
Airport distance calculator
Flying to Bayfield County Airport? Find the distance to fly.

From to Y77

Sunrise and sunset
Times for 02-Jul-2020
 Local
(UTC-5)
 Zulu
(UTC)
Morning civil twilight04:4009:40
Sunrise05:1910:19
Sunset21:0102:01
Evening civil twilight21:4002:40

Current date and time
Zulu (UTC)  02-Jul-2020 13:30:06
Local (UTC-5)  02-Jul-2020 08:30:06
 
METAR
KOLG 
22nm SW 
021315Z AUTO 24003KT 10SM CLR 24/21 A3009 RMK AO1
KASX 
22nm E 
021253Z AUTO 23006KT 10SM CLR 24/20 A3008 RMK AO2 SLP181 T02440200
KDYT 
25nm W 
021315Z AUTO 00000KT 10SM CLR 22/18 A3007 RMK AO2
KSUW 
27nm SW 
021315Z AUTO 00000KT 10SM CLR 21/19 A3007 RMK AO2 T02130193
KTWM 
30nm NW 
021316Z AUTO 00000KT 10SM CLR 26/19 A3007 RMK AO2
K4R5 
31nm NE 
021315Z AUTO 00000KT 10SM CLR 25/22 A3005 RMK AO2 T02450218
KHYR 
34nm S 
021253Z AUTO 00000KT 10SM CLR 24/19 A3010 RMK AO2 SLP185 T02390189
KDLH 
35nm NW 
021255Z 02005KT 10SM FEW090 26/20 A3009 RMK AO2 SLP183 T02560200
KBFW 
37nm N 
021315Z AUTO 00000KT 10SM CLR 26/19 A3007 RMK AO2
TAF
KHYR 
34nm S 
021135Z 0212/0312 00000KT 5SM BR SCT002 FM021300 VRB02KT P6SM FEW035 FM021800 19005KT P6SM VCSH SCT035 FM030100 00000KT P6SM FEW250 FM030800 00000KT 3/4SM BR SCT003
KDLH 
35nm NW 
021135Z 0212/0312 00000KT 6SM BR FEW005 SCT120 TEMPO 0212/0213 1SM BR SCT003 FM021300 VRB04KT P6SM FEW150 FM021700 24005KT P6SM SCT060 FM030300 VRB02KT P6SM FEW120
NOTAMs
Click for the latest NOTAMs
NOTAMs are issued by the DoD/FAA and will open in a separate window not controlled by AirNav.

 

 
 

Would you like to see your business listed on this page?

 If your business provides an interesting product or service to pilots, flight crews, aircraft, or users of the Bayfield County Airport, you should consider listing it here.  To start the listing process, click on the button below
 
Add a business
 

Other Pages about Bayfield County Airport

Page from the Wisconsin airport directory (PDF)
 
Update a link
 
Copyright © AirNav, LLC. All rights reserved. Privacy Policy  Contact